WA1UHF Weather Reports


time (UTC)temp
C
wind
direction
speed
KPH
gust
KPH
rain 1hr
cm
rain 24hr
cm
rain mn
cm
humidity
%
barometer
mb
20260504231542 16 0 0.0 0.0 0.00 0.00 0.00 57 1005.4
20260504230044 17 0 0.0 0.0 0.00 0.00 0.00 57 1005.2
20260504224544 17 0 0.0 0.0 0.00 0.00 0.00 52 1005.1
20260504223042 17 0 0.0 6.4 0.00 0.00 0.00 52 1005.0
20260504221548 18 40 1.6 6.4 0.00 0.00 0.00 51 1005.0
20260504220049 18 0 1.6 6.4 0.00 0.00 0.00 51 1005.1
20260504214547 18 288 0.0 8.0 0.00 0.00 0.00 52 1005.2
20260504213048 18 289 4.8 12.9 0.00 0.00 0.00 50 1005.2
20260504211542 18 246 3.2 16.1 0.00 0.00 0.00 49 1005.2
20260504210042 18 287 4.8 19.3 0.00 0.00 0.00 49 1005.0
20260504204540 18 279 4.8 19.3 0.00 0.00 0.00 49 1005.0
20260504203046 18 280 8.0 25.7 0.00 0.00 0.00 51 1004.8
20260504201546 18 199 8.0 17.7 0.00 0.00 0.00 53 1005.1
20260504200045 17 218 8.0 17.7 0.00 0.00 0.00 53 1004.9
20260504194545 17 252 3.2 14.5 0.00 0.00 0.00 57 1005.1
20260504193046 16 317 0.0 16.1 0.00 0.00 0.00 67 1005.2
20260504191605 15 293 1.6 14.5 0.00 0.00 0.00 68 1005.3
20260504190049 15 286 3.2 11.3 0.00 0.00 0.00 70 1005.6
20260504184548 14 0 1.6 12.9 0.00 0.00 0.00 71 1005.7
20260504183042 14 355 1.6 9.7 0.00 0.00 0.00 73 1005.7
20260504181551 13 9 3.2 12.9 0.00 0.00 0.00 72 1005.8
20260504180048 13 267 1.6 4.8 0.00 0.00 0.00 79 1005.8
20260504174546 12 0 0.0 12.9 0.00 0.00 0.00 78 1006.0
20260504173040 13 5 1.6 19.3 0.00 0.00 0.00 70 1006.3
20260504171547 15 9 1.6 14.5 0.00 0.00 0.00 60 1005.7
20260504090104 -1 0 0.0 1.6 0.00 0.56 0.00 95 1007.5
20260504081547 -1 0 0.0 0.0 0.00 0.58 0.00 94 1007.6
20260504044548 1 0 0.0 0.0 0.00 0.61 0.00 86 1007.2
20260504043049 1 0 0.0 0.0 0.00 0.61 0.00 85 1007.3
20260504041542 1 0 0.0 0.0 0.00 0.61 0.00 85 1007.3
20260504034550 2 0 0.0 0.0 0.00 0.61 0.61 82 1007.1
20260504033046 2 0 0.0 0.0 0.00 0.61 0.61 81 1007.1
20260504031549 3 0 0.0 0.0 0.00 0.61 0.61 79 1007.1
20260504030042 3 0 0.0 0.0 0.00 0.61 0.61 76 1006.9
20260504024550 3 0 0.0 0.0 0.00 0.69 0.61 74 1006.8
20260504023048 5 0 0.0 1.6 0.00 0.69 0.61 69 1006.8
20260504021547 5 0 0.0 3.2 0.00 0.69 0.61 66 1006.6
20260504020042 6 36 0.0 1.6 0.00 0.69 0.61 63 1006.6
20260504014545 6 322 1.6 6.4 0.00 0.71 0.61 61 1006.5
20260504013058 6 0 1.6 6.4 0.00 0.71 0.61 60 1006.4
20260504011547 7 290 3.2 11.3 0.00 0.71 0.61 59 1006.2
20260504010057 7 304 1.6 9.7 0.00 0.71 0.61 59 1006.0
20260504004550 7 310 1.6 6.4 0.00 0.71 0.61 56 1005.8
20260504003048 7 15 3.2 9.7 0.00 0.71 0.61 55 1005.6
20260504001547 7 291 4.8 16.1 0.00 0.71 0.61 56 1005.3
20260504000047 8 295 0.0 6.4 0.00 0.71 0.61 57 1005.2
20260503234542 8 307 1.6 14.5 0.00 0.74 0.61 53 1004.9
20260503233046 8 276 6.4 17.7 0.00 0.74 0.61 51 1004.8